Home   Weather   Bacău   Past weeks
Flag for Romania

Past Weather in Bacău, Romania — Yesterday and Last 2 Weeks

Now
27 °F

Light snow. Ice fog.


Feels Like: 16 °F
Forecast: 34 / 30 °F
Wind: 12 mph from Southeast

Location: Bacau Airport

Current Time: Jan 22, 2019 at 10:31:40 am

Latest Report: Jan 22, 2019 at 9:30 am


Visibility: 2 mi

Pressure: 30.12 "Hg

Humidity: 86%

Dew Point: 23 °F

Location of BacăuLocation

Past Weather in Bacău — Graph

°F

Bacău Temperature Yesterday

Maximum temperature yesterday: 34 °F (at 12:00 am)
Minimum temperature yesterday: 27 °F (at 10:30 pm)
Average temperature yesterday: 30 °F

High & Low Weather Summary for the Past Weeks

 TemperatureHumidityPressure
High45 °F (Jan 17, 5:00 pm)100% (Jan 15, 5:30 am)30.30 "Hg (Jan 15, 5:30 am)
Low7 °F (Jan 13, 7:00 am)47% (Jan 15, 10:30 pm)29.24 "Hg (Jan 14, 12:30 pm)
Average28 °F80%29.88 "Hg
* Reported Jan 7 9:00 am — Jan 22 9:00 am, Bacău. Weather by CustomWeather, © 2019

Note: Actual official high and low records may vary slightly from our data, if they occured in-between our weather recording intervals... More about our weather records

Advertising

Bacău Weather History for the Previous 24 Hours

Scroll right to see more
 ConditionsComfort  
Time TempWeatherWind HumidityBarometerVisibility
9:00 am
Tue, Jan 22
27 °FOvercast.12 mph80%30.12 "Hg5 mi
8:30 am27 °FOvercast.9 mph80%30.12 "HgN/A
8:00 am27 °FOvercast.8 mph80%30.12 "HgN/A
7:30 am27 °FOvercast.8 mph80%30.12 "HgN/A
7:00 am27 °FOvercast.7 mph80%30.15 "HgN/A
6:30 am27 °FOvercast.7 mph80%30.15 "HgN/A
6:00 am27 °FOvercast.6 mph80%30.15 "HgN/A
5:30 am27 °FOvercast.7 mph80%30.15 "HgN/A
5:00 am27 °FOvercast.6 mph80%30.15 "HgN/A
4:30 am27 °FPassing clouds.6 mph80%30.18 "HgN/A
4:00 am27 °FOvercast.7 mph74%30.18 "HgN/A
3:30 am27 °FOvercast.6 mph80%30.18 "HgN/A
3:00 am27 °FPassing clouds.6 mph80%30.18 "HgN/A
2:30 am27 °FOvercast.5 mph80%30.18 "HgN/A
2:00 am27 °FPassing clouds.1 mph80%30.18 "HgN/A
1:30 am27 °FOvercast.No wind80%30.21 "HgN/A
1:00 am27 °FPassing clouds.No wind80%30.21 "HgN/A
12:30 am27 °FOvercast.No wind80%30.21 "HgN/A
12:00 am27 °FLight snow. Overcast.No wind74%30.21 "HgN/A
11:30 pm
Mon, Jan 21
27 °FLight snow. Mostly cloudy.1 mph80%30.21 "HgN/A
11:00 pm27 °FPassing clouds.No wind80%30.21 "HgN/A
10:30 pm27 °FOvercast.No wind74%30.21 "HgN/A
10:00 pm28 °FMostly cloudy.No wind69%30.21 "HgN/A
9:30 pm28 °FMostly cloudy.1 mph69%30.21 "HgN/A
9:00 pm28 °FPassing clouds.3 mph69%30.21 "HgN/A
8:30 pm28 °FPartly cloudy.3 mph74%30.21 "HgN/A
8:00 pm28 °FPassing clouds.7 mph74%30.21 "HgN/A
7:30 pm28 °FOvercast.7 mph80%30.21 "HgN/A
7:00 pm28 °FPassing clouds.8 mph74%30.21 "HgN/A
6:30 pm28 °FOvercast.7 mph80%30.21 "HgN/A
6:00 pm28 °FOvercast.8 mph74%30.18 "HgN/A
5:30 pm28 °FOvercast.8 mph74%30.18 "HgN/A
5:00 pm28 °FPassing clouds.9 mph74%30.18 "HgN/A
4:30 pm30 °FPartly sunny.9 mph69%30.18 "HgN/A
4:00 pm30 °FPartly sunny.12 mph75%30.18 "HgN/A
3:30 pm32 °FBroken clouds.13 mph69%30.18 "HgN/A
3:00 pm32 °FMostly cloudy.12 mph69%30.15 "HgN/A
2:30 pm32 °FMostly cloudy.14 mph69%30.15 "HgN/A
2:00 pm32 °FBroken clouds.10 mph75%30.15 "HgN/A
1:30 pm32 °FBroken clouds.10 mph75%30.15 "HgN/A
1:00 pm32 °FBroken clouds.12 mph75%30.15 "HgN/A
12:00 pm32 °FPartly sunny.15 mph75%30.15 "HgN/A
11:30 am32 °FPartly sunny.17 mph75%30.15 "HgN/A
11:00 am32 °FLight snow. Partly sunny.10 mph80%30.15 "Hg5 mi
10:30 am32 °FLight snow. Broken clouds.9 mph80%30.15 "Hg5 mi
10:00 am32 °FLight snow. Broken clouds.13 mph80%30.12 "Hg4 mi
Weather by CustomWeather, © 2019

See weather overview